Weather in Uttaradit

Thailand     17°35′50″N   100°05′38″E
temp.,
°C
wind,
m/s
gust,
m/s
humid.,
%
clouds,
%
prec.,
mm/h
press.,
hPa
HPBL,
m
5 december, sun
sun501:00+16ne23743 0.0 101735
04:00+15ne23714 0.0 101738
07:00+15ne22775 0.0 101822
10:00+21ene126024 0.0 1020415
13:00+25se12488 0.0 1016864
16:00+25ssw114840 0.0 1014585
19:00+20nw116520 0.0 101511
22:00+18ne227324 0.0 101712
6 december, mon
mon601:00+16ne228110 0.0 101628
04:00+15ne227937 0.0 101626
07:00+15ne227991 0.0 101829
10:00+21ene225864 0.0 1019376
13:00+25se01485 0.0 1015737
16:00+26sw11465 0.0 1013627
19:00+20nw11630 0.0 101511
22:00+19ne11700 0.0 101612
7 december, tue
tue701:00+17ne22770 0.0 101624
04:00+16ne22780 0.0 101522
07:00+15nne22780 0.0 101731
10:00+22ne12580 0.0 1018390
13:00+26se11450 0.0 1015787
16:00+26ssw114584 0.0 1013878
19:00+21nw115981 0.0 101511
22:00+19ne226691 0.0 101712
8 december, wed
wed801:00+18ne2273100 0.0 101624
04:00+17ne227596 0.0 101630
07:00+17ne227637 0.0 101728
10:00+23e115899 0.0 1019426
13:00+27ese1145100 0.0 1016862
16:00+27sw014564 0.0 1014590
19:00+22nw116075 0.0 101511
22:00+20ne2268100 0.0 101716
9 december, thu
thu901:00+18ne227286 0.0 101729
04:00+17ne226990 0.0 101633
07:00+17nne22725 0.0 101824
10:00+24ne11565 0.0 1019404
13:00+28nnw014996 0.0 1016694
16:00+28ssw11513 0.0 1013618
19:00+23wnw226860 0.0 101512
22:00+21ne117566 0.0 101612